Flag for Germany Weather past 2 weeks in Salzwedel, Saxony-Anhalt, Germany

Now
64 °F

Partly sunny.


Feels Like: 64 °F
Forecast: 62 / 81 °F
Wind: 8 mph from Northeast

Location: Fassberg

Current Time: Jul 25, 2014 at 11:08:39 AM

Latest Report: Jul 25, 2014 at 10:20 AM


Visibility: 4 mi

Pressure: 29.98 "Hg

Humidity: 94%

Dew point: 63 °F

Location of SalzwedelLocation

Historic Weather in Salzwedel — Graph

°F

Salzwedel temperature yesterday

Maximum temperature yesterday: 75 °F (at 4:20 PM)
Minimum temperature yesterday: 59 °F (at 4:20 AM)
Average temperature yesterday: 65 °F

Past Weeks' High & Low Weather Summary

 TemperatureHumidityPressure
High88 °F (Jul 19, 1:20 PM)100% (Jul 13, 10:20 PM)30.21 "Hg (Jul 13, 10:20 PM)
Low50 °F (Jul 12, 5:20 AM)31% (Jul 19, 4:20 PM)29.71 "Hg (Jul 13, 2:20 PM)
Average69 °F71%29.98 "Hg
* Reported Jul 10 9:20 AM — Jul 25 9:20 AM, Salzwedel, Weather by CustomWeather, © 2014

Note: Actual official high and low records may vary slightly from our data, if they occured in-between our weather recording intervals... More about our weather records

Advertising

Salzwedel weather history for previous 24 hours

 ConditionsComfort  
Time TempWeatherWind HumidityBarometerVisibility
9:20 AM
Jul 25
63 °FLight rain. Broken clouds.7 mph100%29.98 "Hg4 mi
8:20 AM63 °FLight rain. Fog.5 mph94%30.01 "Hg2 mi
7:46 AM61 °FLight rain. Fog.5 mph100%30.01 "Hg2 mi
7:20 AM61 °FRain. Fog.5 mph100%30.01 "Hg2 mi
6:20 AM61 °FRain. Fog.1 mph94%30.01 "Hg2 mi
6:03 AM61 °FLight rain. Fog.2 mph94%30.01 "Hg2 mi
5:20 AM61 °FRain. Fog.5 mph94%30.01 "Hg3 mi
4:20 AM61 °FRain. Mostly cloudy.5 mph94%30.01 "Hg4 mi
3:20 AM61 °FLight rain. Mostly cloudy.3 mph94%30.04 "HgN/A
2:20 AM61 °FOvercast.6 mph94%30.04 "HgN/A
1:20 AM61 °FOvercast.5 mph94%30.07 "HgN/A
12:20 AM61 °FLight rain. Mostly cloudy.1 mph94%30.07 "HgN/A
11:20 PM
Jul 24
61 °FPartly cloudy.2 mph100%30.07 "HgN/A
10:20 PM63 °FPartly sunny.5 mph94%30.07 "HgN/A
9:20 PM63 °FBroken clouds.2 mph94%30.07 "HgN/A
8:20 PM63 °FLight rain. Partly sunny.3 mph94%30.07 "HgN/A
8:03 PM63 °FLight rain. Broken clouds.7 mph88%30.07 "Hg5 mi
7:20 PM64 °FPartly sunny.1 mph94%30.04 "HgN/A
6:20 PM63 °FThunderstorms. Broken clouds.8 mph94%30.07 "Hg5 mi
6:03 PM64 °FThunderstorms. Partly sunny.10 mph88%30.07 "Hg4 mi
5:20 PM73 °FThunderstorms. Partly sunny.8 mph61%30.04 "HgN/A
4:20 PM75 °FPartly sunny.6 mph57%30.04 "HgN/A
3:20 PM73 °FPartly sunny.8 mph53%30.04 "HgN/A
2:20 PM72 °FBroken clouds.9 mph65%30.07 "HgN/A
1:20 PM72 °FScattered showers. Broken clouds.8 mph65%30.07 "HgN/A
12:20 PM70 °FBroken clouds.7 mph69%30.07 "HgN/A
11:20 AM70 °FBroken clouds.10 mph64%30.07 "HgN/A
Weather by CustomWeather, © 2014

See weather overviewHow to use our weather pages